Location: Downe
(51.3167°N, 0.0500°E)
Time: 05:41:01
(UTC+00:00)

Lacrosse 5 rocket - Pass Details

Date: 17 November 2019
Orbit: 461 x 637 km, 57.0° (Epoch: 10 December)

Event Time Altitude Azimuth Distance (km) Brightness Sun altitude
Exits shadow 05:10:58 37° 350° (N) 748 1.8 -19.9°
Maximum altitude 05:11:31 39° 14° (NNE) 710 1.9 -19.8°
Drops below altitude 10° 05:14:55 10° 85° (E) 1,611 4.9 -19.2°
Sets 05:17:08 0° 94° (E) 2,485 6.4 -18.9°
